Regional Weather Roundup
Issued by NWS

Home | Current Version | Previous Version | Text Only | Print | Product List | Glossary On
Versions: 1 2 3 4 5 6 7 8 9 10 11 12 13 14 15 16 17 18 19 20 21 22 23 24 25 26 27 28 29 30 31 32 33 34 35 36 37 38 39 40 41 42 43 44 45 46 47 48 49 50
000
ASUS43 KMKX 011221
RWRWI

WISCONSIN REGIONAL WEATHER ROUNDUP
NATIONAL WEATHER SERVICE MILWAUKEE/SULLIVAN WI
600 AM CST SUN FEB 01 2015

NOTE: "FAIR" INDICATES FEW OR NO CLOUDS BELOW 12,000 FEET WITH NO
SIGNIFICANT WEATHER AND/OR OBSTRUCTIONS TO VISIBILITY.

WIZ001-002-006>008-014>016-023>028-011300-
NORTHWEST WISCONSIN

CITY           SKY/WX    TMP DP  RH WIND       PRES   REMARKS
SUPERIOR ARPT  LGT SNOW  10   7  88 NE13G18   30.36S WCI  -5
6HR MIN TEMP:   8; 6HR MAX TEMP:  11;

ASHLAND        LGT SNOW   8   1  73 E6        30.35F WCI  -2
6HR MIN TEMP:   8; 6HR MAX TEMP:  15; 6HR PCP: TRACE;

HAYWARD        CLOUDY     7  -3  64 NE10      30.27F WCI  -8
6HR MIN TEMP:   7; 6HR MAX TEMP:  13;

SIREN          CLOUDY    11   1  64 NE10G22   30.27R WCI  -2
6HR MIN TEMP:  11; 6HR MAX TEMP:  15;

CUMBERLAND     CLOUDY    10   0  61 NE18G25   30.21S WCI  -8
RICE LAKE      CLOUDY    10   1  65 NE16      30.23S WCI  -7
6HR MIN TEMP:  10; 6HR MAX TEMP:  16;

CHETEK         CLOUDY    10   1  66 MISG      30.22F
6HR MIN TEMP:  10; 6HR MAX TEMP:  16;

LADYSMITH      CLOUDY     9   1  71 NE12G17   30.24F WCI  -6
6HR MIN TEMP:   9; 6HR MAX TEMP:  15;

EAU CLAIRE     LGT SNOW  12   6  77 NE13      30.18F WCI  -3
6HR MIN TEMP:  13; 6HR MAX TEMP:  19; 6HR PCP: TRACE;

MENOMONIE      CLOUDY    14   7  75 NE17      30.19F HAZE    WCI  -3
6HR MIN TEMP:  14; 6HR MAX TEMP:  19;

NEW RICHMOND   CLOUDY    13   3  64 NE12G24   30.20R WCI  -1
6HR MIN TEMP:  13; 6HR MAX TEMP:  17;

OSCEOLA        CLOUDY    15   4  63 NE18      30.25R WCI  -2
6HR MIN TEMP:  15; 6HR MAX TEMP:  18;

$$

WIZ003>005-009-010-017-018-011300-
NORTH CENTRAL WISCONSIN

CITY           SKY/WX    TMP DP  RH WIND       PRES   REMARKS
MANITOWISH WTR CLOUDY     3  -3  77 NE8       30.24S WCI -11
6HR MIN TEMP:   2; 6HR MAX TEMP:   6;

ARBOR VITAE    CLOUDY     5  -1  77 NE7       30.22F WCI  -7
6HR MIN TEMP:   5; 6HR MAX TEMP:  11;

WOODRUFF       CLOUDY     5  -1  77 NE7       30.22F WCI  -7
6HR MIN TEMP:   5; 6HR MAX TEMP:  11;

RHINELANDER    CLOUDY     5  -1  76 NE8       30.20F WCI  -8
6HR MIN TEMP:   4; 6HR MAX TEMP:   8;

EAGLE RIVER    CLOUDY     4  -2  75 NE9       30.22F WCI -10
6HR MIN TEMP:   4; 6HR MAX TEMP:   6;

LAND O LAKES   CLOUDY     4  -1  82 NE6       30.25S WCI  -7
6HR MIN TEMP:   3; 6HR MAX TEMP:   5;

PHILLIPS       CLOUDY     4  -2  75 NE9       30.22S WCI -10
6HR MIN TEMP:   4; 6HR MAX TEMP:  10;

TOMAHAWK       CLOUDY     6  -1  74 NE7       30.21F WCI  -6
6HR MIN TEMP:   6; 6HR MAX TEMP:  11;

MEDFORD        CLOUDY     8   1  72 NE16G23   30.17S WCI -10
6HR MIN TEMP:   8; 6HR MAX TEMP:  14;

MERRILL        CLOUDY     8   1  73 NE9G17    30.20F WCI  -5
6HR MIN TEMP:   8; 6HR MAX TEMP:  14;

$$

WIZ029-030-035-036-043>047-011300-
CENTRAL WISCONSIN

CITY           SKY/WX    TMP DP  RH WIND       PRES   REMARKS
WAUSAU         CLOUDY    10   2  69 NE12G17   30.18F WCI  -5
6HR MIN TEMP:  10; 6HR MAX TEMP:  16;

MOSINEE        LGT SNOW  10   7  85 NE16G23   30.19F WCI  -7
MARSHFIELD     LGT SNOW  11   6  81 NE14      30.15F WCI  -5
6HR MIN TEMP:  11; 6HR MAX TEMP:  20; 6HR PCP: TRACE;

STEVENS POINT  LGT SNOW   9   5  82 NE13G20   30.18F WCI  -6
6HR MIN TEMP:   9; 6HR MAX TEMP:  19;

WAUPACA        LGT SNOW  14   9  79 N12G21    30.21S WCI   0
6HR MIN TEMP:  14; 6HR MAX TEMP:  20;

WAUTOMA        LGT SNOW  12   9  85 NE14G22   30.17F FOG     WCI  -3
6HR MIN TEMP:  12; 6HR MAX TEMP:  21; 6HR PCP: TRACE;

WISC RAPIDS    LGT SNOW  12   5  73 E14G20    30.18F WCI  -3
6HR MIN TEMP:  12; 6HR MAX TEMP:  23; 6HR PCP:  0.01;

CAMP DOUGLAS   LGT SNOW  12  12 100 NE10G18   30.13F FOG     WCI  -1
6HR MIN TEMP:  13; 6HR MAX TEMP:  25; 6HR PCP: TRACE;

$$

WIZ011>013-019>022-031-037>040-048>050-011300-
NORTHEAST WISCONSIN

CITY           SKY/WX    TMP DP  RH WIND       PRES   REMARKS
ANTIGO         CLOUDY     8   2  79 NE16      30.19F WCI -10
6HR MIN TEMP:   7; 6HR MAX TEMP:  12;

SHAWANO        CLOUDY    14   6  68 NE14G20   30.25F WCI   0
6HR MIN TEMP:  14; 6HR MAX TEMP:  17;

OCONTO         CLOUDY    12   6  76 MISG      30.26F
6HR MIN TEMP:  12; 6HR MAX TEMP:  13;

STURGEON BAY   CLOUDY    12   7  79 NE15      30.26R WCI  -4
6HR MIN TEMP:  12; 6HR MAX TEMP:  14;

GREEN BAY      CLOUDY    14   7  73 NE26      30.23F WCI  -6
6HR MIN TEMP:  14; 6HR MAX TEMP:  16; 6HR PCP: TRACE;

MANITOWOC      LGT SNOW  17  15  92 N8        30.20F VSB 1   WCI   7
6HR MIN TEMP:  15; 6HR MAX TEMP:  21; 6HR PCP: TRACE;

APPLETON       LGT SNOW  12   7  79 NE17G23   30.19F WCI  -5
CLINTONVILLE   FLURRIES  14   5  67 NE14G20   30.23S WCI  -1
OSHKOSH        LGT SNOW  14   9  80 NE21G29   30.17S WCI  -4
6HR MIN TEMP:  13; 6HR MAX TEMP:  17; 6HR PCP: TRACE;

$$

WIZ032>034-041-042-053>061-011300-
SOUTHWEST WISCONSIN

CITY           SKY/WX    TMP DP  RH WIND       PRES   REMARKS
LA CROSSE      LGT SNOW  17  10  74 E14G29    30.13F WCI   3
6HR MIN TEMP:  17; 6HR MAX TEMP:  28; 6HR PCP:  0.16;

SPARTA         LGT SNOW  14   9  82 NE13G21   30.13F WCI  -1
6HR MIN TEMP:  14; 6HR MAX TEMP:  26;

VIROQUA        CLOUDY    14  11  87 NE20G29   30.03F WCI  -3
6HR MIN TEMP:  14; 6HR MAX TEMP:  25; 6HR PCP:  0.01;

BOSCOBEL       LGT SNOW  18  13  80 NE12G22   30.06S VSB 1   WCI   5
6HR MIN TEMP:  18; 6HR MAX TEMP:  28; 6HR PCP:  0.11;

PRAIRIE DU CHI MIX PCPN  20  15  79 NE12G18   30.02S WCI   8
6HR MIN TEMP:  20; 6HR MAX TEMP:  28;

PLATTEVILLE    CLOUDY    20  18  89 NE24G33   29.96F WCI   3
6HR MIN TEMP:  20; 6HR MAX TEMP:  28; 6HR PCP:  0.02;

$$

WIZ056-057-062-063-064-067-068-011300-
SOUTH CENTRAL WISCONSIN

CITY           SKY/WX    TMP DP  RH WIND       PRES   REMARKS
REEDSBURG      LGT SNOW  14  10  85 NE13G21   30.09F WCI  -1
6HR MIN TEMP:  14; 6HR MAX TEMP:  24;

BARABOO/DELLS  LGT SNOW  13  10  85 NE15G22   30.09F VSB 1   WCI  -3
6HR MIN TEMP:  13; 6HR MAX TEMP:  24; 6HR PCP:  0.01;

LONE ROCK      LGT SNOW  18  12  77 NE16      30.07F VSB 1   WCI   3
6HR MIN TEMP:  17; 6HR MAX TEMP:  27; 6HR PCP:  0.02;

MINERAL POINT  LGT SNOW  19  18  93 NE24G32   29.97F WCI   2
MADISON        LGT SNOW  16  12  84 NE16      30.06F VSB 3/4 WCI   1
6HR MIN TEMP:  16; 6HR MAX TEMP:  26; 6HR PCP:  0.14;

MIDDLETON      CLOUDY    17  13  83 NE18      30.06F WCI   1
6HR MIN TEMP:  17; 6HR MAX TEMP:  28; 6HR PCP:  0.01;

WATERTOWN      LGT SNOW  19  18  94 NE16      30.08S WCI   5
6HR MIN TEMP:  19; 6HR MAX TEMP:  26; 6HR PCP:  0.02;

MONROE         LGT SNOW  25  23  93 NE20      29.97F WCI  11
JANESVILLE     CLOUDY    27  25  93 NE21      30.01F WCI  13
$$

WIZ051-052-058>065-066-070>072-011300-
SOUTHEAST WISCONSIN

CITY           SKY/WX    TMP DP  RH WIND       PRES   REMARKS
MILWAUKEE      LGT SNOW  25  21  85 NE20G28   30.09F VSB 1   WCI  11
6HR MIN TEMP:  25; 6HR MAX TEMP:  29; 6HR PCP:  0.13;

WAUKESHA       LGT SNOW  21  19  93 NE12G23   30.08F VSB 1   WCI   9
MILWAUKEE/TIMM LGT SNOW  25  21  86 NE14G25   30.11F WCI  13
RACINE         LGT SNOW  26  22  84 NE21      30.09S VSB 3/4 WCI  12
6HR MIN TEMP:  26; 6HR MAX TEMP:  30; 6HR PCP: TRACE;

BURLINGTON     LGT SNOW  24  22  93 NE16      30.05F WCI  11
6HR MIN TEMP:  24; 6HR MAX TEMP:  28; 6HR PCP:  0.03;

KENOSHA        SNOW      27  25  92 NE21      30.06S VSB 1/2 WCI  13
6HR MIN TEMP:  27; 6HR MAX TEMP:  30; 6HR PCP:  0.03;

FOND DU LAC    LGT SNOW  14  10  84 NE17      30.16F FOG     WCI  -3
6HR MIN TEMP:  14; 6HR MAX TEMP:  23; 6HR PCP: TRACE;

SHEBOYGAN      LGT SNOW  21  17  84 NE18      30.16F VSB 1   WCI   6
6HR MIN TEMP:  16; 6HR MAX TEMP:  24; 6HR PCP:  0.02;

WEST BEND      LGT SNOW  21  19  93 NE22      30.11F WCI   5
JUNEAU         LGT SNOW  15  12  88 N16G23    30.11F WCI  -1
6HR MIN TEMP:  15; 6HR MAX TEMP:  25;

$$

LSZ147-162-011300-
LAKE SUPERIOR

STATION/POSITION TIME  TEMP    WIND        PRES    WAVE
                       AIR SEA DIR/SP/G            HT/PER
                 (UTC) (F)     (DEG/KT/KT) (MB)    (FT/S)
DEVILS ISLAND    1200   10      40/ 21/ 24 1030.8F
PORT WING        1100   13      60/ 14/ 17 1028.4S
SAXON HARBOR     1100    8      CALM  /  6 1028.1F
$$

LMZ867-665-643>646-011300-
LAKE MICHIGAN

STATION/POSITION TIME  TEMP    WIND        PRES    WAVE


USA.gov is the U.S. government's official web portal to all federal, state and local government web resources and services.